UAL313 KIAH-CYYZ

Flight info

Callsign UAL313
Flight time N/A
Altitude 37000
Route INDIE8 TPAKK DCT LIT J131 PXV DCT ROD DCT QWERI NUBER6
Aircraft B738/M-SDE2E3FGHIRWXY/LB1

Departure

Time 2026-05-05 04:30
Airport George Bush Intercontinental Airport (KIAH)

Arrival

Time N/A
Airport Toronto Pearson International Airport (CYYZ)
Time Latitude Longitude Altitude Speed Heading
2026-05-05 04:18 29.98899 -95.34198 106 ft 0 kts 118°
2026-05-05 04:23 29.98900 -95.34200 106 ft 2 kts 118°
2026-05-05 04:23 29.98907 -95.34217 106 ft 2 kts 115°
2026-05-05 04:24 29.98913 -95.34234 106 ft 2 kts 106°
2026-05-05 04:24 29.98915 -95.34253 105 ft 2 kts 61°
2026-05-05 04:24 29.98905 -95.34261 106 ft 1 kts
2026-05-05 04:25 29.98904 -95.34262 106 ft 0 kts
2026-05-05 04:26 29.98926 -95.34260 106 ft 10 kts
2026-05-05 04:26 29.99042 -95.34261 106 ft 20 kts 354°
2026-05-05 04:26 29.99085 -95.34397 106 ft 20 kts 269°
2026-05-05 04:26 29.99085 -95.34554 106 ft 19 kts 270°
2026-05-05 04:27 29.99084 -95.34706 106 ft 19 kts 270°
2026-05-05 04:27 29.99085 -95.34851 106 ft 18 kts 270°
2026-05-05 04:27 29.99090 -95.34999 106 ft 20 kts 272°
2026-05-05 04:27 29.99091 -95.35181 106 ft 25 kts 270°
2026-05-05 04:28 29.99090 -95.35393 106 ft 24 kts 270°
2026-05-05 04:28 29.98983 -95.35484 106 ft 23 kts 181°
2026-05-05 04:28 29.98872 -95.35586 105 ft 20 kts 240°
2026-05-05 04:28 29.98815 -95.35705 107 ft 9 kts 241°
2026-05-05 04:29 29.98774 -95.35754 107 ft 9 kts 201°
2026-05-05 04:29 29.98718 -95.35744 108 ft 8 kts 152°
2026-05-05 04:29 29.98646 -95.35699 107 ft 30 kts 152°
2026-05-05 04:29 29.98246 -95.35455 106 ft 98 kts 151°
2026-05-05 04:30 29.97478 -95.34994 108 ft 150 kts 154°
2026-05-05 04:30 29.96510 -95.34408 546 ft 164 kts 153°
2026-05-05 04:30 29.95488 -95.33768 1170 ft 167 kts 157°
2026-05-05 04:30 29.94391 -95.33198 1754 ft 175 kts 161°
2026-05-05 04:31 29.93203 -95.32591 1979 ft 199 kts 159°
2026-05-05 04:31 29.91946 -95.31815 2159 ft 219 kts 146°
2026-05-05 04:31 29.91104 -95.30309 2609 ft 233 kts 113°
2026-05-05 04:31 29.91028 -95.28366 2977 ft 256 kts 83°
2026-05-05 04:32 29.91760 -95.26404 3222 ft 279 kts 56°
2026-05-05 04:32 29.93245 -95.24908 3758 ft 289 kts 26°
2026-05-05 04:32 29.95104 -95.24336 4562 ft 282 kts
2026-05-05 04:32 29.97060 -95.24242 5414 ft 280 kts 359°
2026-05-05 04:33 29.99016 -95.24158 6087 ft 283 kts 359°
2026-05-05 04:33 30.00969 -95.24068 6775 ft 284 kts 359°
2026-05-05 04:33 30.02950 -95.23966 7455 ft 287 kts 359°
2026-05-05 04:33 30.04949 -95.23852 8185 ft 288 kts 359°
2026-05-05 04:34 30.06950 -95.23730 8912 ft 290 kts 359°
2026-05-05 04:34 30.08970 -95.23602 9680 ft 291 kts 359°
2026-05-05 04:34 30.11008 -95.23470 10331 ft 298 kts 359°
2026-05-05 04:34 30.13159 -95.23333 10507 ft 321 kts 359°
2026-05-05 04:35 30.15466 -95.23183 10672 ft 343 kts 360°
2026-05-05 04:35 30.17903 -95.23020 10946 ft 357 kts 360°
2026-05-05 04:35 30.20376 -95.22849 11483 ft 362 kts 360°
2026-05-05 04:35 30.22897 -95.22675 12173 ft 363 kts 360°
2026-05-05 04:36 30.25413 -95.22504 12911 ft 363 kts 359°
2026-05-05 04:36 30.27939 -95.22326 13649 ft 364 kts
2026-05-05 04:36 30.30465 -95.21838 14225 ft 375 kts 11°
2026-05-05 04:36 30.32962 -95.20847 14738 ft 382 kts 15°
2026-05-05 04:37 30.35473 -95.19813 15352 ft 385 kts 14°
2026-05-05 04:37 30.38012 -95.18801 15984 ft 387 kts 13°
2026-05-05 04:37 30.40569 -95.17801 16580 ft 390 kts 12°
2026-05-05 04:37 30.43117 -95.16810 17146 ft 393 kts 12°
2026-05-05 04:38 30.45706 -95.15730 17708 ft 400 kts 17°
2026-05-05 04:38 30.48230 -95.14281 18257 ft 408 kts 21°
2026-05-05 04:38 30.50720 -95.12664 18733 ft 412 kts 22°
2026-05-05 04:38 30.53227 -95.11022 19209 ft 415 kts 22°
2026-05-05 04:39 30.55765 -95.09410 19688 ft 417 kts 21°
2026-05-05 04:39 30.58299 -95.07835 20167 ft 419 kts 20°
2026-05-05 04:39 30.60888 -95.06224 20642 ft 423 kts 21°
2026-05-05 04:39 30.63420 -95.04612 21102 ft 426 kts 21°
2026-05-05 04:40 30.65984 -95.02962 21557 ft 429 kts 21°
2026-05-05 04:40 30.68501 -95.01336 21988 ft 432 kts 21°
2026-05-05 04:40 30.71135 -94.99633 22422 ft 435 kts 21°
2026-05-05 04:40 30.73787 -94.97920 22861 ft 437 kts 21°
2026-05-05 04:41 30.76455 -94.96197 23297 ft 440 kts 21°
2026-05-05 04:41 30.79142 -94.94466 23685 ft 442 kts 20°
2026-05-05 04:41 30.81829 -94.92731 24147 ft 441 kts 20°
2026-05-05 04:41 30.84517 -94.90993 24533 ft 443 kts 20°
2026-05-05 04:42 30.87213 -94.89250 24862 ft 446 kts 20°
2026-05-05 04:42 30.89897 -94.87516 25178 ft 448 kts 20°
2026-05-05 04:42 30.92629 -94.85749 25512 ft 450 kts 19°
2026-05-05 04:42 30.95372 -94.83973 25861 ft 451 kts 19°
2026-05-05 04:43 30.98122 -94.82192 26193 ft 453 kts 19°
2026-05-05 04:43 31.00881 -94.80403 26509 ft 455 kts 19°
2026-05-05 04:43 31.03655 -94.78604 26818 ft 457 kts 19°
2026-05-05 04:43 31.06443 -94.76794 27119 ft 459 kts 19°
2026-05-05 04:44 31.09240 -94.74976 27417 ft 461 kts 19°
2026-05-05 04:44 31.12012 -94.73174 27699 ft 463 kts 19°
2026-05-05 04:44 31.14831 -94.71341 27981 ft 465 kts 19°
2026-05-05 04:44 31.17662 -94.69499 28281 ft 467 kts 19°
2026-05-05 04:45 31.20505 -94.67649 28516 ft 469 kts 19°
2026-05-05 04:45 31.23358 -94.65791 28767 ft 470 kts 19°
2026-05-05 04:45 31.26219 -94.63926 29024 ft 472 kts 19°
2026-05-05 04:45 31.29092 -94.62051 29280 ft 473 kts 19°
2026-05-05 04:46 31.31970 -94.60171 29526 ft 475 kts 19°
2026-05-05 04:46 31.34816 -94.58309 29864 ft 474 kts 19°
2026-05-05 04:46 31.37687 -94.56428 30272 ft 471 kts 19°
2026-05-05 04:46 31.40530 -94.54564 30665 ft 468 kts 19°
2026-05-05 04:47 31.43366 -94.52707 30966 ft 467 kts 19°
2026-05-05 04:47 31.46212 -94.50845 31213 ft 469 kts 18°
2026-05-05 04:47 31.49068 -94.48974 31419 ft 472 kts 19°
2026-05-05 04:47 31.51914 -94.47050 31738 ft 472 kts 19°
2026-05-05 04:48 31.54734 -94.45090 32110 ft 470 kts 19°
2026-05-05 04:48 31.57536 -94.43120 32485 ft 469 kts 19°